Location: Newark
(49.8348°N, 24.0280°E)
Time: 21:11:45
(UTC+00:00)

Transit 2A - Pass Details

Date: 26 January 2020
Orbit: 600 x 959 km, 66.7° (Epoch: 19 February)

Event Time Altitude Azimuth Distance (km) Brightness Sun altitude
Rises 17:18:23 0° 181° (S) 2,891 9.1 -20.9°
Reaches altitude 10° 17:20:58 10° 168° (SSE) 1,961 8.0 -21.3°
Enters shadow 17:21:34 13° 162° (SSE) 1,769 7.7 -21.4°
Maximum altitude 17:24:31 25° 113° (ESE) 1,241 - -21.9°
Drops below altitude 10° 17:28:02 10° 59° (ENE) 1,951 - -22.4°
Sets 17:30:35 0° 45° (NE) 2,872 - -22.9°
